Dewpoint
66 66 66 68 68 68 67 66 67 67 66 64 62 59 56 56 54 53 52 50 45 41 38 37 36 34 33 33 34 33 32 32 25 27 33 31 30 30 32 34 35 33 33
65 65 66 67 67 67 67 67 68 66 65 63 60 58 56 54 53 52 51 45 42 38 37 35 35 34 33 33 33 34 32 31 27 25 28 29 29 30 32 32 32 32 32
65 65 65 65 67 67 67 68 66 65 63 61 59 57 54 54 52 49 47 40 36 35 35 35 36 36 35 35 35 34 33 32 30 28 27 29 30 30 30 31 31 31 32
65 64 63 64 65 67 68 67 65 63 61 60 58 55 54 52 48 44 36 34 34 35 37 38 38 37 35 36 36 35 31 30 30 29 29 29 29 29 30 30 30 31 30
62 63 63 64 65 66 66 66 64 62 60 58 56 53 51 49 43 37 31 29 31 33 37 38 39 40 41 38 33 31 30 29 30 29 29 29 28 29 29 30 30 30 29
59 63 63 64 64 65 63 61 60 59 57 55 54 51 49 45 42 39 29 22 26 28 29 32 32 35 37 39 39 39 36 32 30 29 28 27 28 29 30 30 29 28 27
58 61 62 63 63 62 60 57 56 55 55 53 51 49 45 42 40 38 33 20 23 24 25 27 28 31 30 27 33 34 35 38 36 30 27 28 28 30 30 31 31 29 29
59 61 62 62 59 56 55 54 54 52 49 48 46 44 42 40 35 32 30 22 22 23 23 24 26 29 32 27 27 27 28 30 33 33 31 31 31 33 33 32 31 30 29
60 62 61 59 55 54 53 52 51 49 47 45 44 41 36 29 33 31 24 20 20 21 22 23 25 28 34 33 27 27 27 28 32 35 35 35 36 36 36 32 30 29 26
59 59 55 53 52 50 50 49 49 47 45 43 39 33 31 24 31 31 24 20 20 20 20 27 34 32 35 33 27 27 26 27 30 28 29 30 32 32 35 32 31 29 26
53 53 53 52 51 50 48 48 46 44 42 38 26 21 20 23 28 32 30 19 20 20 22 26 29 35 35 34 33 29 31 28 29 28 29 30 30 31 31 32 32 30 27
47 47 46 47 47 46 45 45 44 41 38 33 24 25 27 27 33 34 33 31 30 23 25 28 30 34 34 33 31 33 33 30 27 28 28 28 29 30 31 32 31 29 28
46 46 45 44 44 44 43 43 41 37 30 29 28 29 32 31 31 35 35 34 34 29 27 32 33 32 31 30 33 33 31 28 27 26 26 27 29 31 31 31 28 26 28
44 44 43 42 42 43 43 42 37 31 30 31 30 29 27 28 31 29 33 33 34 31 33 31 31 30 29 28 26 27 27 28 27 26 26 27 29 29 29 29 24 26 25
42 42 41 41 40 39 39 37 29 30 34 30 29 25 27 28 26 29 28 25 26 27 26 25 23 22 20 21 22 23 25 25 26 26 26 26 27 28 28 27 24 25 24
39 38 38 37 37 33 32 33 33 33 33 33 32 29 28 31 33 33 33 32 31 29 24 23 22 22 21 20 20 20 22 24 24 25 25 26 26 27 28 24 24 24 24
38 38 37 32 29 30 27 27 27 31 33 33 33 33 32 33 33 32 32 31 30 27 23 22 22 21 20 20 19 20 20 22 23 24 24 25 26 27 26 24 23 24 23
36 33 30 29 28 26 26 26 24 23 24 26 32 32 33 32 31 31 30 27 23 24 22 21 21 20 19 18 17 18 19 21 22 22 23 24 25 26 26 24 23 24 24
31 25 26 26 24 24 23 23 23 23 24 25 27 29 31 31 31 30 29 23 22 22 22 22 21 19 17 16 15 16 17 20 21 22 23 24 24 25 24 24 24 25 25
28 29 26 25 22 22 22 23 23 24 25 26 25 25 24 24 23 24 24 23 23 23 22 21 20 18 16 14 14 15 16 18 20 22 22 23 24 25 24 24 23 24 24
28 28 28 23 22 22 23 24 26 26 26 25 26 26 27 23 23 23 24 23 23 22 21 19 17 16 15 14 14 14 16 18 21 22 23 23 23 24 24 23 24 24 24
23 21 21 22 23 24 25 27 27 26 25 25 26 26 27 24 24 24 24 24 24 23 21 19 18 17 16 15 15 15 17 20 22 23 24 23 23 24 24 23 23 24 24
21 22 23 25 27 28 27 26 25 26 26 26 25 24 24 24 24 24 25 25 24 23 22 20 19 18 19 18 19 19 20 22 23 24 24 23 23 23 23 22 22 23 24
24 26 26 27 27 26 25 26 26 27 26 26 26 26 26 26 25 25 25 26 25 24 22 21 20 19 18 18 19 22 24 25 25 25 24 24 22 22 22 22 22 23 24
27 27 27 27 25 25 26 26 26 26 26 26 26 26 27 27 26 26 26 25 26 25 23 22 22 21 20 20 21 23 26 27 26 26 24 23 22 22 22 22 22 22 23
28 28 27 26 25 27 27 27 27 27 27 27 27 27 28 27 27 27 27 26 26 25 24 23 22 22 21 22 24 25 26 26 25 25 23 22 22 21 22 21 21 22 22
Lifted_Index
-10 -10 -10 -9 -8 -6 -6 -6 -5 -4 -4 -4 -3 -3 -3 -2 -2 -0 1 1 1 3 5 8 11 14 15 16 17 16 16 15 14 15 17 18 18 18 18 19 19 19 19
-10 -10 -10 -9 -8 -7 -6 -6 -5 -4 -4 -4 -3 -3 -2 -2 -1 0 1 1 2 4 7 10 13 15 16 16 17 17 16 16 15 15 16 17 18 18 18 18 18 18 18
-10 -10 -10 -9 -7 -6 -6 -6 -5 -4 -4 -3 -2 -2 -1 -1 -0 1 1 2 4 7 10 13 15 16 16 17 17 17 17 17 16 16 16 17 17 17 17 17 17 17 17
-10 -10 -9 -8 -7 -6 -6 -5 -4 -4 -4 -3 -1 -0 -0 0 1 1 2 4 7 10 14 16 17 17 17 17 17 17 17 17 17 16 16 16 16 16 16 15 15 15 15
-9 -9 -9 -8 -6 -5 -5 -5 -4 -4 -3 -2 -1 0 1 2 2 2 4 6 10 13 16 17 17 18 18 18 18 17 17 17 16 16 15 15 15 15 15 15 14 13 13
-7 -8 -8 -7 -6 -5 -4 -3 -3 -3 -2 -1 0 1 2 2 3 4 6 10 13 15 16 17 17 18 18 18 19 19 18 18 17 16 15 15 15 15 15 14 13 12 12
-6 -7 -7 -6 -5 -4 -3 -2 -2 -2 -0 1 1 1 2 3 5 7 11 14 16 17 17 17 17 18 19 19 19 19 19 19 19 18 17 16 16 16 16 15 14 13 13
-5 -6 -6 -4 -3 -2 -2 -2 -2 -1 1 2 3 2 3 5 7 11 14 16 17 17 18 18 18 19 19 19 19 19 19 20 20 20 19 18 18 17 17 16 15 14 13
-5 -5 -4 -2 -1 -1 -2 -1 -1 1 2 3 3 3 5 8 11 14 16 17 17 17 18 19 19 19 20 20 19 19 19 20 20 20 19 19 18 18 17 17 15 14 13
-5 -4 -3 -0 0 -0 -0 1 2 3 4 4 4 5 8 11 14 17 17 17 17 17 18 19 20 20 20 20 20 19 19 19 19 18 18 17 17 17 17 17 16 15 14
-3 -3 -1 0 1 1 1 3 5 5 4 3 5 8 12 15 17 18 18 18 17 17 18 19 20 20 20 20 20 20 19 19 18 16 16 16 16 16 17 17 17 16 16
-2 -1 -0 2 3 3 4 5 5 4 3 3 6 10 15 17 18 19 19 19 18 18 18 19 20 20 21 21 21 20 19 18 16 15 15 15 16 16 16 17 17 17 16
2 1 2 3 4 5 5 5 4 3 3 4 7 12 15 17 19 19 19 19 19 19 19 20 21 21 21 21 20 19 18 16 15 14 15 15 16 16 16 16 17 17 16
4 4 4 4 4 4 4 4 3 3 4 6 9 13 15 17 19 19 19 19 19 19 20 20 21 20 20 20 19 18 17 15 15 15 15 16 16 16 16 16 17 16 16
4 4 4 4 3 3 4 4 5 6 8 10 12 14 16 17 18 19 19 19 19 20 20 20 19 19 19 18 17 17 16 15 15 16 16 16 16 16 16 17 17 17 16
4 3 3 3 3 3 5 7 10 11 13 14 16 17 17 18 18 19 19 20 20 20 19 19 18 18 17 17 16 16 15 16 16 16 16 16 16 16 16 17 17 17 16
3 3 3 3 4 6 9 12 14 15 16 17 18 18 18 19 19 19 20 20 20 20 19 18 17 17 17 16 16 16 16 16 17 17 17 17 17 17 17 17 17 17 17
3 4 5 6 9 11 13 15 16 16 17 18 18 19 19 19 19 20 20 20 19 19 18 17 17 17 17 17 16 16 16 17 17 17 17 18 18 18 17 17 18 18 18
6 7 8 11 13 15 16 16 17 17 17 18 19 19 19 19 19 20 20 19 18 18 18 17 17 17 17 17 17 17 17 17 18 18 18 18 18 18 18 18 18 18 18
11 12 12 13 15 16 16 17 17 17 18 18 18 19 19 19 19 19 19 19 18 18 18 18 18 17 17 17 17 17 17 18 18 18 18 19 19 19 19 19 19 19 19
13 13 13 13 14 16 16 17 17 17 17 18 18 19 19 19 19 19 19 19 18 18 18 17 17 17 17 17 17 17 17 18 18 18 19 19 19 19 19 19 19 19 19
13 13 14 15 15 16 17 17 17 17 18 18 18 19 19 19 19 19 19 18 18 18 18 17 17 17 17 17 18 18 17 18 18 18 19 19 19 19 19 19 19 19 19
15 15 16 16 17 17 17 17 18 18 18 18 18 19 19 19 19 19 18 18 17 17 17 17 17 17 18 18 18 18 18 18 18 18 19 19 19 19 19 19 19 19 19
18 18 17 17 17 17 17 17 18 18 18 18 18 19 19 18 18 17 17 16 16 16 17 17 17 18 18 18 19 19 18 18 18 19 19 19 19 19 19 19 19 19 19
17 17 17 17 17 17 17 17 17 18 18 18 18 18 17 17 16 15 15 15 16 16 16 17 17 18 18 19 19 19 18 18 18 19 19 19 19 19 19 19 19 19 19
16 16 16 17 17 17 17 17 17 18 18 18 17 17 16 15 15 14 14 15 15 16 16 17 17 18 18 18 18 18 18 18 18 18 19 19 19 19 19 19 19 19 19